Weather History for KIZG - August, 2014

Change the Weather History Date:

Monday, August 25, 2014

  Actual Average Record
Temperature  
Mean Temperature 70 °F -  
Max Temperature 88 °F 77 °F 96 °F (2007)
Min Temperature 52 °F 49 °F 39 °F (2001)
Cooling Degree Days 5    
Growing Degree Days 20 (Base 50)    
Moisture  
Dew Point 58 °F    
Average Humidity 74    
Maximum Humidity 100    
Minimum Humidity 37    
Precipitation  
Precipitation 0.00 in - - ()
Sea Level Pressure  
Sea Level Pressure 30.14 in    
Wind  
Wind Speed 1 mph (South)    
Max Wind Speed 5 mph    
Max Gust Speed -    
Visibility 9 miles    
Events      
Averages and records for this station are not official NWS values.
T = Trace of Precipitation, MM = Missing Value Source: NWS Daily Summary

Daily Weather History Graph

Daily Weather History Graph

Search for Another Location

Airport or City:

Trip Planner

Search our weather history database for the weather conditions in past years. The results will help you decide how hot, cold, wet, or windy it might be!

Date:

Astronomy

Aug. 25, 2014 Rise Set
Actual Time 5:59 AM EDT 7:31 PM EDT
Civil Twilight 5:28 AM EDT 8:02 PM EDT
Nautical Twilight 4:51 AM EDT 8:38 PM EDT
Astronomical Twilight 4:12 AM EDT 9:17 PM EDT
Moon 6:03 AM EDT (8/25) 7:17 PM EDT (8/25)
Length of Visible Light 14h 33m
Length of Day
13h 32m
New Moon, 0% of the Moon is Illuminated
Aug 25
New Moon
Sep 2
First Quarter
Sep 8
Full
Sep 15
Last Quarter
Sep 24
New

Hourly Weather History & Observations

Time (EDT) Temp. Heat Index Dew Point Humidity Pressure Visibility Wind Dir Wind Speed Gust Speed Precip Events Conditions
12:54 AM 59.0 °F - 57.0 °F 93% 30.14 in 10.0 mi Calm Calm - N/A   Clear
1:54 AM 55.9 °F - 55.9 °F 100% 30.13 in 10.0 mi Calm Calm - N/A   Clear
2:54 AM 55.9 °F - 55.0 °F 97% 30.12 in 10.0 mi Calm Calm - N/A   Clear
3:54 AM 55.0 °F - 53.1 °F 93% 30.13 in 6.0 mi Calm Calm - N/A   Clear
5:37 AM 53.1 °F - 52.0 °F 96% 30.15 in 5.0 mi Calm Calm - N/A   Partly Cloudy
5:45 AM 52.0 °F - 51.1 °F 97% 30.15 in 2.0 mi Calm Calm - N/A   Partly Cloudy
5:54 AM 53.1 °F - 51.1 °F 93% 30.15 in 9.0 mi Calm Calm - N/A   Partly Cloudy
6:09 AM 52.0 °F - 51.1 °F 97% 30.15 in 1.8 mi Calm Calm - N/A   Clear
6:18 AM 52.0 °F - 51.1 °F 97% 30.16 in 4.0 mi Calm Calm - N/A   Clear
6:54 AM 55.9 °F - 54.0 °F 93% 30.16 in 9.0 mi Calm Calm - N/A   Clear
8:54 AM 73.0 °F - 62.1 °F 68% 30.17 in 10.0 mi Calm Calm - N/A   Clear
9:54 AM 78.1 °F - 60.1 °F 54% 30.17 in 10.0 mi Calm Calm - N/A   Clear
10:54 AM 82.0 °F 82.1 °F 59.0 °F 45% 30.17 in 10.0 mi Calm Calm - N/A   Clear
11:54 AM 84.0 °F 84.4 °F 61.0 °F 46% 30.17 in 10.0 mi Variable 3.5 mph - N/A   Clear
12:54 PM 84.9 °F 84.8 °F 60.1 °F 43% 30.15 in 10.0 mi Variable 3.5 mph - N/A   Clear
1:54 PM 86.0 °F 85.4 °F 59.0 °F 40% 30.14 in 10.0 mi Calm Calm - N/A   Clear
2:54 PM 88.0 °F 87.6 °F 60.1 °F 39% 30.12 in 10.0 mi Calm Calm - N/A   Clear
3:54 PM 87.1 °F 86.1 °F 57.9 °F 37% 30.11 in 10.0 mi ENE 3.5 mph - N/A   Clear
4:54 PM 87.1 °F 86.1 °F 57.9 °F 37% 30.10 in 10.0 mi Calm Calm - N/A   Clear
5:54 PM 82.9 °F 84.0 °F 63.0 °F 51% 30.10 in 10.0 mi South 4.6 mph - N/A   Clear
6:54 PM 78.1 °F - 66.9 °F 68% 30.11 in 10.0 mi SSW 3.5 mph - N/A   Clear
7:54 PM 71.1 °F - 66.0 °F 84% 30.12 in 10.0 mi South 4.6 mph - N/A   Clear
8:54 PM 66.9 °F - 64.9 °F 93% 30.13 in 10.0 mi Calm Calm - N/A   Clear
9:54 PM 64.0 °F - 62.1 °F 93% 30.13 in 10.0 mi Calm Calm - N/A   Clear
11:54 PM 62.1 °F - 60.1 °F 93% 30.13 in 10.0 mi Calm Calm - N/A   Clear